Location: Godzisko
(49.9648°N, 19.4576°E)
Time: 07:50:18
(UTC+00:00)

Cosmos 1821 Rocket - Pass Details

Date: 20 April 2021
Orbit: 946 x 1004 km, 82.9° (Epoch: 06 May)

Event Time Altitude Azimuth Distance (km) Brightness Sun altitude
Rises 00:48:00 0° 350° (N) 3,699 7.7 -22.5°
Reaches altitude 10° 00:50:31 10° 351° (N) 2,755 7.0 -22.3°
Maximum altitude 00:56:52 84° 80° (E) 1,007 4.0 -21.7°
Enters shadow 01:00:59 24° 168° (SSE) 1,943 5.2 -21.3°
